This is the latest recevied weather packets stored in our database for station/object M0XDC. If no packets are shown the sender has not sent any weather packets the latest 10 day(s).
| Time | Temp. | Humidity | Pressure | Rain* | Wind** | Luminosity | Snow |
|---|---|---|---|---|---|---|---|
| 1777631857 | 20° C | 37% | 1018.8 hPa | 0 mm | - | - | - |
| 1777630057 | 19.44° C | 37% | 1019.1 hPa | 0 mm | - | - | - |
| 1777628257 | 18.89° C | 38% | 1019.1 hPa | 0 mm | - | - | - |
| 1777626458 | 17.78° C | 39% | 1019.3 hPa | 0 mm | - | - | - |
| 1777625024 | 17.22° C | 38% | 1019.2 hPa | 0 mm | - | - | - |
| 1777624657 | 17.22° C | 38% | 1019.2 hPa | 0 mm | - | - | - |
| 1777622857 | 16.67° C | 45% | 1019.5 hPa | 0 mm | - | - | - |
| 1777621058 | 15° C | 48% | 1019.2 hPa | 0 mm | - | - | - |
| 1777619257 | 13.89° C | 54% | 1019 hPa | 0 mm | - | - | - |
| 1777617457 | 12.78° C | 56% | 1018.9 hPa | 0 mm | - | - | - |
| 1777615657 | 11.67° C | 59% | 1019.1 hPa | 0 mm | - | - | - |
| 1777614275 | 10.56° C | 63% | 1018.9 hPa | 0 mm | - | - | - |
| 1777613857 | 10.56° C | 63% | 1018.9 hPa | 0 mm | - | - | - |
| 1777612057 | 9.44° C | 66% | 1019.1 hPa | 0 mm | - | - | - |
| 1777610257 | 8.33° C | 66% | 1018.7 hPa | 0 mm | - | - | - |
| 1777608457 | 8.89° C | 66% | 1018.7 hPa | 0 mm | - | - | - |
| 1777606657 | 9.44° C | 65% | 1018.9 hPa | 0 mm | - | - | - |
| 1777604857 | 9.44° C | 62% | 1018.9 hPa | 0 mm | - | - | - |
| 1777603057 | 9.44° C | 62% | 1019 hPa | 0 mm | - | - | - |
| 1777601257 | 8.89° C | 67% | 1019 hPa | 0 mm | - | - | - |
| 1777599458 | 9.44° C | 67% | 1019.3 hPa | 0 mm | - | - | - |
| 1777597657 | 8.89° C | 68% | 1019.5 hPa | 0 mm | - | - | - |
| 1777595857 | 8.89° C | 70% | 1019.4 hPa | 0 mm | - | - | - |
| 1777594057 | 10° C | 68% | 1019.4 hPa | 0 mm | - | - | - |
| 1777592321 | 10.56° C | 67% | 1019.5 hPa | 0 mm | - | - | - |
* Rain latest hour (hover to see other rain measurements)
** Current wind speed in m/s (hover to see current wind gust speed)